Location: Boleita
(10.4833°N, 66.8167°W)
Time: 03:00:14
(UTC+00:00)

NOAA 12 - Pass Details

Date: 08 November 2025
Orbit: 793 x 812 km, 98.6° (Epoch: 09 December)

Event Time Altitude Azimuth Distance (km) Brightness Sun altitude
Rises 09:10:55 0° 13° (NNE) 3,322 7.3 -17.2°
Reaches altitude 10° 09:13:15 10° 13° (NNE) 2,390 6.5 -16.7°
Maximum altitude 09:18:33 87° 100° (E) 813 4.1 -15.4°
Drops below altitude 10° 09:23:50 10° 192° (SSW) 2,384 6.6 -14.2°
Sets 09:26:10 0° 192° (SSW) 3,312 7.3 -13.6°
